Weather Roundup
Issued by NWS Chicago, IL

Home | Current Version | Previous Version | Text Only | Print | Product List | Glossary On
Versions: 1 2 3 4 5 6 7 8 9 10 11 12 13 14 15 16 17 18 19 20 21 22 23 24 25 26 27 28 29 30 31 32 33 34 35 36 37 38 39 40 41 42 43 44 45 46 47 48 49 50
846
NZUS59 KLOT 200808
HRRLOT

CHICAGO AREA WEATHER ROUNDUP
NATIONAL WEATHER SERVICE CHICAGO/ROMEOVILLE IL
200 AM CST MON NOV 20 2017

NOTE: "FAIR" INDICATES FEW OR NO CLOUDS BELOW 12,000 FEET WITH NO
SIGNIFICANT WEATHER AND/OR OBSTRUCTIONS TO VISIBILITY.

* THESE STATIONS ARE NOT UNDER NWS QUALITY CONTROL. THEY ALSO MAY NOT
  REPORT WEATHER SUCH AS PRECIPITATION OR FOG.

ILZ005-006-012>014-019>023-200900-
NORTHEAST ILLINOIS

CITY           SKY/WX    TMP DP  RH WIND       PRES   REMARKS
OHARE          CLOUDY    31  22  69 SW8       30.00F WCI  23
MIDWAY         PTCLDY    32  23  69 SW9       30.02F WCI  24
AURORA         CLOUDY    27  22  81 S6        30.02F WCI  20
LANSING*       PTCLDY    30  24  79 SW12      30.04F WCI  20
JOLIET*        CLOUDY    31  25  77 S6        30.04F WCI  25
WAUKEGAN       CLEAR     31  23  72 SW10      29.97F WCI  22
DUPAGE AIRPORT CLOUDY    27  23  85 S7        30.01F WCI  19
WHEELING       PTCLDY    31  23  72 S7        30.01F WCI  24
KANKAKEE*      PTCLDY    30  23  74 S3        30.07F
MORRIS*        CLOUDY    32  24  73 SW9       30.03S WCI  24
LEWIS AIRPORT* CLOUDY    29  24  79 S8        30.03F WCI  22
NORTHERLY ISL    N/A     33  22  64 SW9         N/A  WCI  25
$$

WIZ051-052-058>065-066-070>072-200900-
SOUTHEAST WISCONSIN

CITY           SKY/WX    TMP DP  RH WIND       PRES   REMARKS
MILWAUKEE      PTCLDY    31  23  72 SW10      29.95F WCI  22
KENOSHA*       CLEAR     32  22  66 SW9       29.97F WCI  24
RACINE*        CLEAR     31  23  72 SW9       29.97F WCI  23
BURLINGTON     CLEAR     30  27  90 SW7       29.96R WCI  23
WAUKESHA       CLEAR     30  21  69 S6        29.95S WCI  24
WEST BEND      CLEAR     30  21  69 SW3       29.92S
$$

INZ001>003-010>013-019-020-200900-
NORTHWEST INDIANA

CITY           SKY/WX    TMP DP  RH WIND       PRES   REMARKS
GARY*          PTCLDY    33  22  64 SW7       30.05S WCI  26
MICHIGAN CITY* NOT AVBL
RENSSELAER*    NOT AVBL
VALPARAISO     CLOUDY    29  22  75 S6        30.06F WCI  23
$$

LMZ740>746-200900-
SOUTHERN LAKE MICHIGAN

STATION/POSITION TIME  SKY/WX   TEMP WIND        PRES    VSBY
                                AIR  DIR/SP/G
                 (UTC)          (F)  (DEG/KT/KT) (MB)    (MI)
HARRISON CRIB    0740            37  240/ 23/ 25   N/A
BURNHAM HARBOR   0800            33  250/  6/ 11   N/A
CALUMET HARBOR   0748            33  210/  7/ 11 1016.1F
BURNS HARBOR     0740            33  220/ 11/ 15 1017.6F
MICHIGAN CITY    0740            32  200/ 14/ 16   N/A
$$

ABBREVIATIONS USED IN REMARKS
   TC - TEMPERATURE IN CELSIUS
  WCI - WIND CHILL INDEX
   HX - HEAT INDEX
  VSB - VISIBILITY
$$




USA.gov is the U.S. government's official web portal to all federal, state and local government web resources and services.